Flag for Germany Weather past 2 weeks in Nordhorn, Lower Saxony, Germany

Now
63 °F

Overcast.


Feels Like: 63 °F
Forecast: 61 / 76 °F
Wind: 2 mph from Northeast

Location: Twenthe

Current Time: Jul 25, 2014 at 6:16:55 AM

Latest Report: Jul 25, 2014 at 5:00 AM


Visibility: 16 mi

Pressure: 30.02 "Hg

Humidity: 79%

Dew point: 56 °F

Location of NordhornLocation

Historic Weather in Nordhorn — Graph

°F

Nordhorn temperature yesterday

Maximum temperature yesterday: 78 °F (at 6:00 PM)
Minimum temperature yesterday: 60 °F (at 6:00 AM)
Average temperature yesterday: 70 °F

Past Weeks' High & Low Weather Summary

 TemperatureHumidityPressure
High92 °F (Jul 19, 4:00 PM)100% (Jul 10, 7:00 AM)30.20 "Hg (Jul 10, 7:00 AM)
Low52 °F (Jul 12, 6:00 AM)28% (Jul 19, 4:00 PM)29.69 "Hg (Jul 13, 7:00 PM)
Average70 °F75%29.97 "Hg
* Reported Jul 10 4:00 AM — Jul 25 4:00 AM, Nordhorn, Weather by CustomWeather, © 2014

Note: Actual official high and low records may vary slightly from our data, if they occured in-between our weather recording intervals... More about our weather records

Advertising

Nordhorn weather history for previous 24 hours

 ConditionsComfort  
Time TempWeatherWind HumidityBarometerVisibility
4:00 AM
Jul 25
63 °FOvercast.3 mph76%30.02 "Hg14 mi
3:00 AM61 °FOvercast.2 mph80%30.02 "Hg10 mi
2:00 AM62 °FOvercast.1 mph80%30.03 "Hg15 mi
1:00 AM65 °FOvercast.1 mph70%30.03 "Hg28 mi
12:00 AM66 °FOvercast.5 mph63%30.03 "Hg28 mi
11:00 PM
Jul 24
68 °FPassing clouds.6 mph57%30.03 "Hg28 mi
10:00 PM68 °FPassing clouds.2 mph67%30.03 "Hg28 mi
9:00 PM70 °FFog.3 mph62%30.01 "Hg25 mi
8:00 PM72 °FPartly sunny.3 mph60%29.99 "Hg25 mi
7:00 PM77 °FPassing clouds.7 mph47%29.99 "Hg17 mi
6:00 PM78 °FSunny.7 mph47%29.99 "Hg22 mi
5:00 PM77 °FPassing clouds.7 mph46%30.00 "Hg19 mi
4:00 PM78 °FSunny.8 mph47%30.01 "Hg19 mi
3:00 PM77 °FPassing clouds.6 mph47%30.01 "Hg22 mi
2:00 PM78 °FPassing clouds.7 mph49%30.02 "Hg15 mi
1:00 PM76 °FPassing clouds.6 mph52%30.03 "Hg18 mi
12:00 PM74 °FPassing clouds.6 mph59%30.03 "Hg19 mi
11:00 AM72 °FSunny.5 mph63%30.04 "Hg19 mi
10:00 AM69 °FSunny.6 mph67%30.04 "Hg15 mi
9:00 AM67 °FSunny.6 mph72%30.04 "Hg16 mi
8:00 AM65 °FSunny.5 mph75%30.04 "Hg17 mi
7:00 AM62 °FSunny.5 mph77%30.04 "Hg16 mi
6:00 AM60 °FSunny.5 mph82%30.03 "Hg22 mi
Weather by CustomWeather, © 2014

See weather overviewHow to use our weather pages